• In Deutschland
  • Länderverzeichnis
  • Für 7 Tage
  • Wassertemperatur
  • Satellitenkarten
  • Wetterkarte
  • Widgets
  • user-avatar
    Anmelden

    Stündliche Wetter Bengazi

    Heute, 19 Januar, Freitag

    Zeit Temperatur Niederschläge Wind Luftdruck Luftfeuchtigkeit
    00:00 +13°C° 0 mm 4 m/S 767 mmHg 57%
    01:00 +13°C° 0 mm 4 m/S 767 mmHg 58%
    02:00 +13°C° 0 mm 4 m/S 767 mmHg 59%
    03:00 +13°C° 0 mm 4 m/S 767 mmHg 60%
    04:00 +13°C° 0 mm 3 m/S 767 mmHg 61%
    05:00 +13°C° 0 mm 3 m/S 767 mmHg 61%
    06:00 +14°C° 0 mm 2 m/S 767 mmHg 62%
    07:00 +13°C° 0 mm 2 m/S 766 mmHg 62%
    08:00 +14°C° 0 mm 2 m/S 767 mmHg 58%
    09:00 +15°C° 0 mm 2 m/S 767 mmHg 55%
    10:00 +16°C° 0 mm 2 m/S 767 mmHg 51%
    11:00 +16°C° 0 mm 2 m/S 767 mmHg 49%
    12:00 +17°C° 0 mm 2 m/S 766 mmHg 48%
    13:00 +17°C° 0 mm 2 m/S 766 mmHg 46%
    14:00 +17°C° 0 mm 2 m/S 766 mmHg 46%
    15:00 +17°C° 0 mm 3 m/S 765 mmHg 47%
    16:00 +17°C° 0 mm 3 m/S 765 mmHg 47%
    17:00 +17°C° 0 mm 3 m/S 765 mmHg 51%
    18:00 +16°C° 0 mm 3 m/S 765 mmHg 55%
    19:00 +16°C° 0 mm 3 m/S 765 mmHg 58%
    20:00 +15°C° 0 mm 4 m/S 765 mmHg 59%
    21:00 +14°C° 0 mm 5 m/S 765 mmHg 60%
    22:00 +14°C° 0 mm 5 m/S 765 mmHg 60%
    23:00 +14°C° 0 mm 6 m/S 765 mmHg 58%

    Morgen, 20 Januar, Samstag

    Zeit Temperatur Niederschläge Wind Luftdruck Luftfeuchtigkeit
    00:00 +14°C° 0 mm 6 m/S 765 mmHg 57%
    01:00 +12°C° 0 mm 7 m/S 764 mmHg 55%
    02:00 +12°C° 0 mm 7 m/S 764 mmHg 55%
    03:00 +12°C° 0 mm 7 m/S 764 mmHg 54%
    04:00 +12°C° 0 mm 7 m/S 763 mmHg 53%
    05:00 +11°C° 0 mm 8 m/S 763 mmHg 53%
    06:00 +11°C° 0 mm 8 m/S 763 mmHg 53%
    07:00 +11°C° 0 mm 8 m/S 763 mmHg 53%
    08:00 +12°C° 0 mm 9 m/S 763 mmHg 50%
    09:00 +13°C° 0 mm 9 m/S 763 mmHg 46%
    10:00 +15°C° 0 mm 9 m/S 763 mmHg 43%
    11:00 +16°C° 0 mm 9 m/S 762 mmHg 40%
    12:00 +16°C° 0 mm 9 m/S 762 mmHg 38%
    13:00 +17°C° 0 mm 9 m/S 761 mmHg 36%
    14:00 +17°C° 0 mm 8 m/S 761 mmHg 36%
    15:00 +17°C° 0 mm 8 m/S 760 mmHg 37%
    16:00 +17°C° 0 mm 8 m/S 760 mmHg 37%
    17:00 +17°C° 0 mm 8 m/S 760 mmHg 38%
    18:00 +16°C° 0 mm 8 m/S 760 mmHg 40%
    19:00 +15°C° 0 mm 8 m/S 760 mmHg 41%
    20:00 +15°C° 0 mm 8 m/S 760 mmHg 41%
    21:00 +15°C° 0 mm 9 m/S 759 mmHg 41%
    22:00 +15°C° 0 mm 9 m/S 759 mmHg 41%
    23:00 +15°C° 0 mm 9 m/S 759 mmHg 41%

    übermorgen, 21 Januar, Sonntag

    Zeit Temperatur Niederschläge Wind Luftdruck Luftfeuchtigkeit
    00:00 +13°C° 0 mm 9 m/S 758 mmHg 42%
    01:00 +13°C° 0 mm 9 m/S 758 mmHg 42%
    02:00 +13°C° 0 mm 9 m/S 757 mmHg 43%
    03:00 +13°C° 0 mm 8 m/S 757 mmHg 44%
    04:00 +12°C° 0 mm 8 m/S 756 mmHg 45%
    05:00 +12°C° 0 mm 7 m/S 756 mmHg 47%
    06:00 +12°C° 0 mm 7 m/S 756 mmHg 49%
    07:00 +13°C° 0 mm 6 m/S 756 mmHg 51%
    08:00 +14°C° 0 mm 5 m/S 757 mmHg 53%
    09:00 +15°C° 0 mm 5 m/S 757 mmHg 56%
    10:00 +18°C° 0 mm 4 m/S 757 mmHg 58%
    11:00 +17°C° 0 mm 5 m/S 757 mmHg 56%
    12:00 +18°C° 0 mm 7 m/S 757 mmHg 54%
    13:00 +19°C° 0 mm 9 m/S 757 mmHg 52%
    14:00 +18°C° 0,1 mm 9 m/S 757 mmHg 57%
    15:00 +18°C° 0,1 mm 10 m/S 757 mmHg 61%
    16:00 +17°C° 0,1 mm 10 m/S 758 mmHg 66%
    17:00 +17°C° 0,1 mm 10 m/S 758 mmHg 67%
    18:00 +16°C° 0,1 mm 10 m/S 759 mmHg 68%
    19:00 +16°C° 0,1 mm 10 m/S 760 mmHg 70%
    20:00 +16°C° 0,3 mm 10 m/S 760 mmHg 72%
    21:00 +16°C° 0,3 mm 10 m/S 760 mmHg 74%
    22:00 +16°C° 0,3 mm 10 m/S 760 mmHg 77%
    23:00 +16°C° 0,4 mm 10 m/S 760 mmHg 77%

    22 Januar, Montag

    Zeit Temperatur Niederschläge Wind Luftdruck Luftfeuchtigkeit
    00:00 +16°C° 0,4 mm 10 m/S 760 mmHg 77%
    01:00 +16°C° 0,4 mm 10 m/S 760 mmHg 77%
    02:00 +16°C° 0,1 mm 10 m/S 760 mmHg 77%
    03:00 +16°C° 0,1 mm 9 m/S 760 mmHg 78%
    04:00 +16°C° 0,1 mm 9 m/S 760 mmHg 78%
    05:00 +16°C° 0 mm 8 m/S 760 mmHg 79%
    06:00 +16°C° 0 mm 8 m/S 761 mmHg 80%
    07:00 +16°C° 0 mm 7 m/S 761 mmHg 80%
    08:00 +16°C° 0 mm 7 m/S 762 mmHg 75%
    09:00 +17°C° 0 mm 7 m/S 762 mmHg 71%
    10:00 +17°C° 0 mm 7 m/S 763 mmHg 66%
    11:00 +19°C° 0 mm 6 m/S 762 mmHg 65%
    12:00 +19°C° 0 mm 6 m/S 762 mmHg 65%
    13:00 +19°C° 0 mm 6 m/S 762 mmHg 65%
    14:00 +19°C° 0 mm 6 m/S 762 mmHg 67%
    15:00 +19°C° 0 mm 6 m/S 762 mmHg 69%
    16:00 +17°C° 0 mm 6 m/S 763 mmHg 71%
    17:00 +17°C° 0 mm 5 m/S 763 mmHg 74%
    18:00 +17°C° 0 mm 5 m/S 763 mmHg 77%
    19:00 +17°C° 0 mm 4 m/S 764 mmHg 81%
    20:00 +17°C° 0 mm 4 m/S 764 mmHg 81%
    21:00 +17°C° 0 mm 4 m/S 764 mmHg 82%
    22:00 +17°C° 0 mm 4 m/S 764 mmHg 83%
    23:00 +17°C° 0 mm 4 m/S 764 mmHg 81%

    23 Januar, Dienstag

    Zeit Temperatur Niederschläge Wind Luftdruck Luftfeuchtigkeit
    00:00 +17°C° 0 mm 4 m/S 764 mmHg 80%
    01:00 +17°C° 0 mm 4 m/S 764 mmHg 78%
    02:00 +17°C° 0 mm 4 m/S 764 mmHg 78%
    03:00 +17°C° 0 mm 3 m/S 764 mmHg 77%
    04:00 +17°C° 0 mm 3 m/S 764 mmHg 77%
    05:00 +17°C° 0,1 mm 3 m/S 764 mmHg 78%
    06:00 +17°C° 0,1 mm 3 m/S 764 mmHg 79%
    07:00 +16°C° 0,1 mm 2 m/S 764 mmHg 80%
    08:00 +17°C° 0,1 mm 3 m/S 764 mmHg 77%
    09:00 +18°C° 0,1 mm 3 m/S 765 mmHg 75%
    10:00 +18°C° 0,1 mm 3 m/S 765 mmHg 72%
    11:00 +18°C° 0,1 mm 4 m/S 764 mmHg 71%
    12:00 +19°C° 0,1 mm 4 m/S 764 mmHg 70%
    13:00 +19°C° 0,1 mm 5 m/S 764 mmHg 69%
    14:00 +19°C° 0,1 mm 5 m/S 763 mmHg 70%
    15:00 +17°C° 0,1 mm 5 m/S 763 mmHg 72%
    16:00 +17°C° 0,1 mm 5 m/S 763 mmHg 73%
    17:00 +17°C° 0,2 mm 5 m/S 763 mmHg 75%
    18:00 +17°C° 0,2 mm 5 m/S 764 mmHg 76%
    19:00 +17°C° 0,2 mm 5 m/S 764 mmHg 77%
    20:00 +17°C° 0,1 mm 5 m/S 764 mmHg 77%
    21:00 +16°C° 0,1 mm 5 m/S 764 mmHg 78%
    22:00 +16°C° 0,1 mm 5 m/S 764 mmHg 79%
    23:00 +17°C° 0,1 mm 4 m/S 764 mmHg 79%

    24 Januar, Mittwoch

    Zeit Temperatur Niederschläge Wind Luftdruck Luftfeuchtigkeit
    00:00 +17°C° 0,1 mm 4 m/S 764 mmHg 78%
    01:00 +17°C° 0,1 mm 4 m/S 764 mmHg 78%
    02:00 +16°C° 0,1 mm 5 m/S 764 mmHg 79%
    03:00 +16°C° 0,1 mm 5 m/S 764 mmHg 79%
    04:00 +16°C° 0,1 mm 5 m/S 764 mmHg 79%
    05:00 +15°C° 0 mm 6 m/S 764 mmHg 79%
    06:00 +15°C° 0 mm 6 m/S 765 mmHg 79%
    07:00 +15°C° 0 mm 7 m/S 765 mmHg 80%
    08:00 +16°C° 0 mm 8 m/S 766 mmHg 75%
    09:00 +16°C° 0 mm 9 m/S 766 mmHg 71%
    10:00 +17°C° 0 mm 9 m/S 767 mmHg 66%
    11:00 +17°C° 0 mm 9 m/S 767 mmHg 63%
    12:00 +17°C° 0 mm 9 m/S 767 mmHg 60%
    13:00 +18°C° 0 mm 9 m/S 766 mmHg 56%
    14:00 +17°C° 0 mm 10 m/S 767 mmHg 56%
    15:00 +17°C° 0 mm 10 m/S 767 mmHg 56%
    16:00 +16°C° 0 mm 11 m/S 767 mmHg 56%
    17:00 +14°C° 0 mm 11 m/S 768 mmHg 58%
    18:00 +14°C° 0 mm 11 m/S 768 mmHg 60%
    19:00 +13°C° 0 mm 11 m/S 769 mmHg 62%
    20:00 +12°C° 0 mm 10 m/S 769 mmHg 63%
    21:00 +12°C° 0 mm 10 m/S 769 mmHg 64%
    22:00 +12°C° 0 mm 10 m/S 770 mmHg 65%
    23:00 +11°C° 0 mm 9 m/S 770 mmHg 66%
    Mehr zeigen